Hourly Weather Roundup
Issued by NWS Central Illinois

Home | Current Version | Previous Version | Text Only | Print | Product List | Glossary On
Versions: 1 2 3 4 5 6 7 8 9 10 11 12 13 14 15 16 17 18 19 20 21 22 23 24 25 26 27 28 29 30 31 32 33 34 35 36 37 38 39 40 41 42 43 44 45 46 47 48 49 50
000
NZUS43 KILX 252110
HWRILX

AREA WEATHER ROUNDUP
NATIONAL WEATHER SERVICE, LINCOLN IL
400 PM CDT SAT APR 25 2015


CITY           SKY/WX    TMP DP  RH WIND       PRES   REMARKS
BLOOMINGTON    CLOUDY    48  46  93 E21       29.62R
CHAMPAIGN      CLOUDY    51  47  86 E22       29.57F
DECATUR        CLOUDY    54  49  83 E17       29.55F
EFFINGHAM      LGT RAIN  53  51  92 NE8       29.54F
FLORA          CLOUDY    55  54  96 NE9       29.52F FOG
GALESBURG      CLOUDY    46  44  92 NE15G22   29.66R
JACKSONVILLE   CLOUDY    58  52  83 NE9       29.57R
LACON          CLOUDY    46  43  87 NE10      29.66R
LAWRENCEVILLE  CLOUDY    54  53  97 NE14      29.55S FOG
LITCHFIELD     RAIN      52  50  93 NE9       29.53S
$$


CITY           SKY/WX    TMP DP  RH WIND       PRES   REMARKS
LINCOLN        CLOUDY    54  49  84 NE14      29.57S
MACOMB         CLOUDY    49  46  90 NE18      29.65R
MATTOON        LGT RAIN  51  49  92 E13       29.54F
MT CARMEL AP   CLOUDY    57  54  88 NE12G18   29.53S
OLNEY-NOBLE AP LGT RAIN  54  54 100 NE10      29.51F
PARIS          CLOUDY    50  48  94 E9        29.59F
PEORIA         CLOUDY    50  44  80 NE16      29.64R
PONTIAC        CLOUDY    48  46  90 E22       29.66R
RANTOUL        CLOUDY    51  47  85 E15G24    29.60S
ROBINSON       LGT RAIN  53  52  97 E12       29.57S
SPRINGFIELD    CLOUDY    57  50  77 E12       29.56R
TAYLORVILLE    CLOUDY    52  50  93 E9G21     29.54R
$$

...REGIONAL REPORTS...


CITY           SKY/WX    TMP DP  RH WIND       PRES   REMARKS
CHICAGO O`HARE CLOUDY    47  40  76 E18G25    29.72S
KANKAKEE       CLOUDY    48  43  84 E16       29.67S
MOLINE         CLOUDY    49  43  80 E15G25    29.70R
MOUNT VERNON   CLOUDY    63  57  82 CALM      29.49R
PITTSFIELD     DRIZZLE   56  54  92 NE9       29.56S
QUINCY         CLOUDY    55  50  83 NE17      29.56R
ROCKFORD       CLOUDY    50  39  66 NE23G30   29.75S
$$


CITY           SKY/WX    TMP DP  RH WIND       PRES   REMARKS
BURLINGTON     CLOUDY    49  46  90 NE15G28   29.65R
CEDAR RAPIDS   CLOUDY    50  44  80 E16       29.71R
DES MOINES     CLOUDY    50  45  83 NE14      29.71R
KIRKSVILLE     LGT RAIN  52  51  97 N21G26    29.60R FOG
OTTUMWA        CLOUDY    48  46  93 NE17      29.67R
ST LOUIS       CLOUDY    62  57  83 NE10      29.51R HAZE
$$


CITY           SKY/WX    TMP DP  RH WIND       PRES   REMARKS
TERRE HAUTE    CLOUDY    50  47  89 E14       29.58S
EVANSVILLE     PTSUNNY   74  58  57 NW9       29.47F
INDIANAPOLIS   CLOUDY    47  43  86 E15       29.61F
LAFAYETTE      CLOUDY    45  42  89 E20G25    29.62F
MADISON        CLOUDY    49  35  58 NE16      29.81S
MILWAUKEE      CLOUDY    40  30  67 N22       29.83F WCI  30
$$




USA.gov is the U.S. government's official web portal to all federal, state and local government web resources and services.